Forside
METAR-TAF:

METAR-TAF

Lufthavne :

Dubai International Airport

Dubai, Forenede Arabiske Emirater

Breddekreds: 25-15-10N, længdekreds: 055-21-52E, højde: 8 m

Aktuelle vejr

Denne rapport blev lavet for 1 time og 9 minutter siden, kl. 17:00 UTC
Vind 6 kt fra nordnordvest, varierende mellem nordvest og nord
Temperatur 36°C
Fugtighed 71%
Tryk 995 hPa
Sigt: 8000 m

METAR: OMDB 141700Z 33006KT 310V010 8000 NSC 36/30 Q0995 NOSIG

Tid: 22:09 (18:09 UTC)

Vejrudsigter

Denne rapport blev lavet for 1 time og 14 minutter siden, kl. 16:55 UTC
Foreløbig gælder fra 14 på 18 UTC til 16 på 00 UTC
Vind 10 kt fra nordnordvest
Sigt: 8000 m
ændring
fra 14 på 18 UTC til 14 på 20 UTC
Vind 5 kt fra øst
Sandsynlighed 30%
fra 14 på 21 UTC til 15 på 04 UTC
Sigt: 4000 m
tåge/dis
ændring
fra 15 på 07 UTC til 15 på 09 UTC
Vind 12 kt fra nordnordvest
ændring
fra 15 på 18 UTC til 15 på 20 UTC
Vind 5 kt fra øst

TAF: OMDB 141655Z 1418/1600 34010KT 8000 NSC BECMG 1418/1420 09005KT PROB30 1421/1504 4000 HZ BECMG 1507/1509 33012KT BECMG 1518/1520 09005KT

Vejrobservationer og prognoser fra mere end 4000 lufthavne (METAR og TAF).

De gule og røde prikker repræsenterer de meteorologiske stationer.

Flyt musen over at se navnet på stationen.

Så klik over at se vejr observationer og prognoser.

At skifte det kort: Klik på de grønne knapper med et sort kors for at zoome ind; på den grønne knap med en bindestreg for at zoome ud; eller på de grønne pile for tilstødende kort.


METAR-TAF: